Home > Weather > Helmstedt > Past weeks

Flag for Germany Past Weather in Helmstedt, Lower Saxony, Germany — Yesterday and Last 2 Weeks

Now
77 °F

Passing clouds.


Feels Like: 79 °F
Forecast: 61 / 74 °F
Wind: 8 mph from Northwest

Location: Braunschweig Wolfsburg

Current Time: Jul 26, 2016 at 4:11:06 PM

Latest Report: Jul 26, 2016 at 3:20 PM


Visibility: N/A

Pressure: 30.12 "Hg

Humidity: 51%

Dew Point: 57 °F

Location of HelmstedtLocation

Past Weather in Helmstedt — Graph

°F

Helmstedt Temperature Yesterday

Maximum temperature yesterday: 84 °F (at 3:20 PM)
Minimum temperature yesterday: 63 °F (at 5:20 AM)
Average temperature yesterday: 77 °F

High & Low Weather Summary for the Past Weeks

 TemperatureHumidityPressure
High90 °F (Jul 20, 6:20 PM)100% (Jul 26, 6:50 AM)30.24 "Hg (Jul 26, 6:50 AM)
Low55 °F (Jul 14, 6:50 AM)31% (Jul 20, 3:50 PM)29.80 "Hg (Jul 11, 2:20 PM)
Average72 °F60%30.03 "Hg
* Reported Jul 11 2:20 PM — Jul 26 2:20 PM, Helmstedt, Weather by CustomWeather, © 2016

Note: Actual official high and low records may vary slightly from our data, if they occured in-between our weather recording intervals... More about our weather records

Advertising

Helmstedt Weather History for the Previous 24 Hours

Scroll right to see more
 ConditionsComfort  
Time TempWeatherWind HumidityBarometerVisibility
2:20 PM
Tue, Jul 26
75 °FPassing clouds.7 mph54%30.12 "HgN/A
1:50 PM75 °FScattered clouds.6 mph54%30.12 "HgN/A
1:20 PM75 °FScattered clouds.5 mph54%30.12 "HgN/A
12:50 PM73 °FPartly sunny.6 mph61%30.15 "HgN/A
12:20 PM73 °FBroken clouds.5 mph61%30.15 "HgN/A
11:50 AM72 °FBroken clouds.6 mph69%30.15 "HgN/A
11:20 AM70 °FBroken clouds.5 mph73%30.15 "HgN/A
10:50 AM70 °FPartly sunny.7 mph69%30.15 "HgN/A
10:20 AM70 °FPartly sunny.7 mph73%30.12 "HgN/A
9:50 AM72 °FBroken clouds.6 mph69%30.12 "HgN/A
9:20 AM70 °FScattered clouds.7 mph73%30.12 "HgN/A
8:50 AM68 °FPartly sunny.6 mph83%30.12 "HgN/A
8:20 AM68 °FBroken clouds.7 mph83%30.12 "HgN/A
7:50 AM66 °FPartly sunny.5 mph88%30.12 "HgN/A
7:20 AM66 °FOvercast.2 mph94%30.12 "HgN/A
6:50 AM64 °FClear.No wind100%30.09 "Hg6 mi
9:50 PM
Mon, Jul 25
73 °FSunny.7 mph74%30.07 "Hg10 mi
9:20 PM75 °FSunny.2 mph65%30.04 "Hg10 mi
8:50 PM79 °FSunny.2 mph54%30.04 "Hg10 mi
8:20 PM81 °FSunny.2 mph51%30.04 "Hg10 mi
7:50 PM79 °FPassing clouds.5 mph54%30.04 "HgN/A
7:20 PM81 °FPassing clouds.6 mph51%30.04 "HgN/A
6:50 PM81 °FPassing clouds.7 mph51%30.04 "HgN/A
6:20 PM82 °FPassing clouds.5 mph51%30.04 "HgN/A
5:50 PM82 °FPassing clouds.9 mph55%30.04 "HgN/A
5:20 PM82 °FPassing clouds.7 mph51%30.04 "HgN/A
4:50 PM82 °FPassing clouds.7 mph51%30.04 "HgN/A
4:20 PM84 °FPassing clouds.7 mph45%30.04 "HgN/A
Weather by CustomWeather, © 2016

See weather overviewHow to use our weather pages